Погода в Серебрянском

Россия / Новосибирская область     54°52′28″N   80°42′00″E
темп.,
°C
ветер,
м/с
пор.,
м/с
влажн.,
%
обл.,
%
осадки,
мм/ч
давл.,
гПа
погр.,
м
19 апреля, пн
пн1901:00+1зсз81597100 3.3 1004710
04:00−5сз111579100 0.6 10101157
07:00−7ссз91375100 0.6 10161010
10:00−7ссз8105898 0.0 10201059
13:00−5ссз78465 0.0 10231281
16:00−4ссз6742100 0.0 10241690
19:00−5ссз6749100 0.0 10251470
22:00−6ссз6755100 0.1 10271292
20 апреля, вт
вт2001:00−7ссз5650100 0.1 10281308
04:00−8ссз45577 0.0 10281059
07:00−8ссз45655 0.0 1029756
10:00−6сз455286 0.0 10291045
13:00−3сз45415 0.0 10281233
16:00−1сз45354 0.0 10271403
19:00−1зсз46365 0.0 10261566
22:00−3зюз485371 0.0 1026336
21 апреля, ср
ср2101:00−3юз41052100 0.0 1024652
04:00−2юз6949100 0.0 10221115
07:00−3юз71167100 0.0 1021812
10:00−3юз71189100 1.1 1020764
13:00−1юз5789100 2.8 1020663
16:00+1сз2493100 1.5 1020455
19:00+1ссз358284 2.3 1022572
22:00−1всв598962 1.3 1026498
22 апреля, чт
чт2201:00−2св599444 1.3 1029376
04:00−3св499526 0.0 1032311
07:00−3ссв599551 0.0 1036353
10:00−1св68727 0.0 1038771
13:00+2св575199 0.0 10391636
16:00+3ссв6748100 0.0 10401737
19:00+2ссв686785 0.1 1042936
22:00−1ссв49868 0.1 1044222
23 апреля, пт
пт2301:00−2ссв38905 0.1 1044197
04:00−2ссв37915 0.0 1044177
07:00−2св38905 0.0 1045277
10:00+1св57675 0.0 1045766
13:00+4св5750100 0.0 10431701
16:00+5св675097 0.0 10421735
19:00+5св575984 0.0 1041711
22:00+1ссв49785 0.0 1041188